Location: Rounton
(54.4000°N, 1.3500°W)
Time: 03:38:08
(UTC+00:00)

Envisat - Pass Details

Date: 24 October 2021
Orbit: 764 x 766 km, 98.2° (Epoch: 28 November)

Event Time Altitude Azimuth Distance (km) Brightness Sun altitude
Rises 18:16:53 0° 201° (SSW) 3,224 6.8 -5.1°
Reaches altitude 10° 18:19:34 10° 214° (SW) 2,303 6.3 -5.4°
Maximum altitude 18:23:43 25° 269° (W) 1,517 5.7 -6.0°
Drops below altitude 10° 18:27:54 10° 324° (NW) 2,317 5.8 -6.6°
Sets 18:30:38 0° 338° (NNW) 3,248 6.4 -7.0°
